Wind_Speed
19 17 16 15 15 14 14 13 11 11 10 10 10 9 9 9 9 8 8 8 8 8 8 8 8 9 9 10 12 13 12 11 9 8 8 9 9 8 9 8 4 4 7 7 7 8 8 9 9 8 8 8 7 6 6 6 6 7 10 11 9 9 8
18 16 16 16 16 15 14 13 12 12 12 11 10 10 9 9 9 9 8 8 8 8 8 8 8 9 10 11 12 13 13 12 10 9 8 9 9 8 8 8 6 6 8 7 7 8 8 9 9 10 10 9 7 7 8 8 7 8 11 12 11 11 10
19 18 17 17 16 15 15 14 13 12 12 10 8 8 8 8 8 9 8 9 8 8 8 8 8 9 10 11 12 11 12 13 10 9 9 9 9 8 7 8 9 9 8 8 9 9 8 8 9 10 11 10 8 7 7 7 8 10 12 12 12 11 10
19 19 19 20 19 18 17 16 14 13 11 10 9 9 8 8 9 9 9 9 9 9 9 8 8 9 10 11 12 12 12 11 10 9 9 9 10 9 8 9 10 10 9 9 10 10 9 10 11 12 11 10 9 7 7 9 10 11 11 11 11 10 9
20 21 21 22 21 20 19 17 15 13 12 11 10 9 9 9 9 9 9 9 9 9 9 8 8 8 9 10 11 12 11 10 10 10 10 9 10 9 8 10 10 10 11 8 8 10 9 9 13 13 11 11 10 9 11 13 12 10 10 10 9 8 8
20 21 21 20 20 19 18 18 16 14 13 12 11 10 10 9 9 9 9 9 9 9 9 9 9 8 8 9 10 11 10 9 10 10 10 10 10 9 9 10 9 9 10 9 9 11 9 9 13 14 12 12 11 11 12 12 11 10 9 8 8 7 7
21 20 20 20 20 18 17 17 15 13 12 12 12 11 11 11 10 9 9 9 9 9 10 10 10 9 8 8 9 9 9 9 10 11 10 9 10 10 10 10 9 8 8 9 9 10 9 10 13 13 12 12 11 11 11 10 10 10 9 8 8 8 8
22 21 21 22 21 19 17 17 15 13 12 12 11 11 12 11 11 10 9 9 9 9 9 9 10 10 9 9 8 9 9 9 9 10 10 9 9 10 10 10 9 8 7 7 8 9 9 9 10 12 12 13 12 11 10 10 10 9 9 9 8 8 10
24 23 23 24 23 20 18 16 14 13 12 12 12 12 12 11 11 11 9 9 9 9 9 9 9 10 10 9 9 9 9 8 8 9 8 8 8 9 9 9 8 7 8 8 8 8 8 8 9 10 12 12 12 11 11 10 9 8 10 10 9 9 10
23 23 24 25 24 21 19 16 15 14 13 12 12 12 12 12 12 11 10 9 9 9 10 10 9 9 9 9 9 9 8 7 8 8 8 7 7 8 9 9 9 8 9 9 9 9 9 10 11 12 13 12 10 10 11 10 9 9 10 10 10 11 11
20 21 24 25 23 21 19 17 15 14 13 12 12 12 12 12 11 10 10 10 10 10 10 10 10 10 9 9 8 9 8 7 7 7 7 7 7 8 8 10 10 8 9 10 10 10 10 11 11 11 13 11 7 7 10 10 9 10 11 11 10 11 13
20 21 23 23 22 21 19 17 16 14 13 12 11 11 12 12 11 9 9 10 10 9 8 9 9 9 9 9 8 8 8 8 8 7 8 8 8 8 8 10 10 9 10 11 10 11 11 11 10 8 10 9 4 6 9 9 10 10 11 11 10 12 13
21 23 24 22 21 21 19 17 16 14 13 12 11 11 12 12 11 10 9 10 9 7 7 8 8 9 10 9 8 8 8 8 8 8 8 8 7 7 7 9 10 9 11 11 10 12 13 13 11 9 10 8 4 6 8 8 11 12 11 11 11 12 12
23 23 22 21 20 20 19 17 16 14 13 12 10 10 11 11 11 10 10 10 9 8 7 7 8 8 9 10 9 8 8 7 7 6 7 7 6 7 6 8 10 10 11 10 10 13 15 15 12 10 11 9 6 7 8 8 12 14 12 11 11 11 12
22 22 20 19 19 19 18 16 15 14 13 11 10 11 11 12 11 10 10 10 10 9 7 7 8 8 8 9 10 9 8 8 8 7 8 7 6 6 6 7 9 10 11 12 12 14 16 14 12 11 12 10 8 9 9 9 12 14 13 12 12 11 12
21 22 20 18 19 19 16 15 14 14 13 11 11 11 11 11 11 10 10 11 11 9 7 7 8 8 8 8 9 10 10 9 10 9 8 7 6 6 7 7 9 11 13 13 15 16 15 14 13 12 12 11 9 10 9 9 10 12 12 12 11 11 11
22 23 20 18 19 18 16 15 15 14 13 12 11 11 11 11 11 11 11 11 10 9 7 7 8 8 8 8 8 9 10 10 10 9 9 8 6 6 7 8 9 11 13 13 15 16 16 14 13 12 12 11 10 10 10 9 9 9 10 11 11 10 11
26 26 22 19 19 18 16 16 16 15 13 13 12 12 11 11 10 11 11 10 9 8 7 7 8 9 9 9 9 9 9 9 9 9 9 9 8 6 7 8 10 12 13 13 15 16 15 15 14 12 12 12 10 11 11 10 9 8 8 9 10 10 10
27 26 23 22 22 19 17 17 17 15 14 13 13 12 11 11 10 10 10 10 9 8 7 7 7 8 9 9 9 9 10 10 10 9 9 8 8 8 7 8 12 14 14 13 15 15 15 14 13 12 11 11 10 11 11 11 10 9 8 9 9 10 11
26 25 24 24 23 20 18 18 17 16 15 15 14 13 12 11 11 10 10 9 8 8 7 7 6 7 7 8 8 8 10 10 10 10 9 8 8 9 8 9 12 14 14 13 13 14 15 15 14 13 12 11 10 11 11 11 11 10 10 10 10 11 12
25 24 24 26 24 22 21 19 17 16 16 16 16 16 14 13 12 11 10 10 9 8 7 6 6 6 6 6 7 7 8 8 8 9 9 8 9 10 9 9 11 13 15 14 14 14 15 15 15 14 12 11 11 11 10 10 11 11 12 11 11 11 11
25 25 26 27 26 24 23 20 19 19 18 18 17 16 14 12 11 11 11 11 11 11 10 9 9 9 8 7 6 5 6 7 7 8 8 8 9 9 9 9 11 12 13 14 14 14 13 13 13 12 10 10 10 10 10 10 10 10 11 12 12 12 12
26 25 27 28 27 26 23 21 21 20 19 18 17 16 13 11 10 9 10 11 12 11 10 9 9 9 9 8 7 5 5 6 7 7 7 7 8 8 9 10 11 12 12 13 13 13 12 11 11 11 10 10 10 10 9 9 9 9 10 10 11 11 12
23 24 27 29 28 25 23 22 22 21 20 18 17 15 14 12 11 11 11 11 10 9 9 8 8 7 7 7 7 6 5 6 7 8 7 6 6 7 8 9 11 12 12 12 13 13 13 12 12 12 12 12 12 12 10 9 8 8 9 9 10 10 12
25 26 29 29 27 24 23 23 21 19 17 16 14 13 14 14 13 13 12 10 9 9 8 8 7 7 6 6 6 6 5 5 6 7 7 6 6 6 7 7 9 12 13 13 14 14 14 14 14 13 13 13 14 14 12 11 9 9 9 9 10 11 12
24 24 24 23 21 18 16 15 13 11 12 13 13 14 16 15 13 12 12 10 9 9 8 8 7 7 6 6 6 6 5 5 5 6 6 7 7 7 7 7 8 10 13 14 14 13 12 13 14 14 14 14 15 14 14 13 12 12 12 12 12 13 13
19 18 17 15 13 11 11 12 12 12 11 12 13 15 15 14 12 11 11 10 9 8 8 7 7 6 6 5 5 5 5 5 6 6 6 7 8 8 8 8 7 8 10 12 12 12 11 11 12 14 14 15 15 15 15 15 15 15 16 16 16 16 15
15 16 16 15 13 12 12 13 15 15 15 15 14 14 13 12 11 11 10 10 9 8 7 7 6 6 6 5 5 5 6 6 7 7 7 8 8 8 9 9 8 8 9 10 11 12 12 12 13 14 14 15 15 15 16 18 19 18 18 19 18 18 17
13 14 14 14 13 12 14 15 16 15 14 13 12 12 11 10 10 10 10 9 9 8 8 7 7 7 7 6 6 7 7 7 8 9 9 9 9 10 10 11 11 11 11 12 14 14 14 15 15 16 17 17 17 17 18 21 22 21 20 20 20 20 20
14 14 13 13 12 12 13 14 14 13 12 11 11 11 12 11 10 10 10 10 10 9 8 8 8 8 8 8 8 9 8 9 10 11 12 12 12 13 14 14 14 14 14 16 18 17 17 18 18 19 20 20 21 21 21 23 25 23 22 23 23 23 24
16 15 14 14 14 13 12 12 12 11 9 8 7 8 8 8 8 8 8 8 8 7 7 7 8 8 8 8 9 9 9 9 11 12 12 13 13 14 15 16 16 16 18 20 20 20 20 21 21 22 23 24 24 24 23 25 27 27 26 27 28 28 28
17 16 15 15 14 14 13 12 11 10 9 8 6 5 5 4 4 4 4 4 5 5 6 7 7 8 8 9 9 10 10 10 12 12 12 13 13 13 15 16 17 17 18 20 21 21 21 22 22 23 23 24 25 26 25 24 26 28 29 29 30 31 31
15 14 13 13 12 12 11 10 9 8 8 7 6 5 5 4 4 4 5 5 6 7 8 9 9 10 11 12 12 13 14 14 16 16 16 16 17 17 17 18 19 21 21 21 22 23 23 23 23 23 23 24 24 25 25 23 23 26 28 28 28 30 31
11 10 9 9 9 8 7 6 5 5 4 4 4 3 3 4 4 5 6 7 8 9 10 11 12 12 13 14 15 16 17 18 18 19 20 20 20 21 20 19 22 26 26 24 26 27 27 27 27 27 27 27 26 26 26 25 25 26 27 28 29 30 31
7 6 6 5 4 4 4 3 2 2 1 1 2 2 3 4 5 6 7 8 9 10 11 12 13 13 14 15 16 17 18 19 19 19 21 21 21 23 23 23 26 29 29 27 28 30 30 31 32 32 32 31 30 30 30 30 30 28 27 28 28 28 29
4 3 3 3 2 2 2 2 1 1 2 2 3 3 4 5 5 6 7 8 9 10 11 12 13 14 15 16 16 17 18 19 19 20 21 22 22 23 24 26 29 29 28 28 29 30 30 32 33 34 34 33 33 32 32 33 34 33 31 28 26 25 24
4 3 3 2 1 1 0 0 0 0 1 1 2 3 4 5 5 6 7 8 8 9 11 12 14 14 15 16 17 17 18 20 20 20 21 21 22 23 25 27 28 28 27 28 28 28 29 29 30 31 32 33 33 33 34 35 35 35 35 33 30 28 25
Wind_Direction
186 184 183 179 179 181 179 176 174 176 179 182 186 187 188 190 182 177 178 177 182 187 187 185 186 187 185 194 201 193 186 188 187 189 198 197 195 209 211 197 195 190 182 189 183 170 169 162 167 177 170 169 179 183 175 153 143 149 150 146 143 142 133
187 183 180 177 176 175 172 171 170 173 180 183 186 186 187 192 182 173 177 178 182 183 179 182 186 188 190 195 198 198 192 187 186 187 195 201 199 208 211 194 184 181 180 192 189 179 176 164 163 177 176 166 171 170 149 140 146 152 153 150 144 145 143
183 180 177 174 174 171 169 169 168 173 183 184 180 180 181 183 179 175 178 181 184 181 175 180 189 192 196 198 197 201 199 191 188 189 192 199 199 203 205 197 196 195 192 194 189 182 177 168 160 168 172 162 154 150 137 141 148 145 150 151 144 145 146
179 177 175 174 172 169 166 167 168 171 179 182 181 185 183 181 182 179 178 183 183 178 175 177 187 193 197 200 199 202 202 193 191 194 193 196 198 201 203 204 206 207 210 201 186 185 184 171 158 158 162 155 146 147 148 148 144 143 147 148 146 150 148
180 177 176 175 171 167 167 167 169 170 174 179 183 186 185 184 187 182 177 181 180 177 178 180 186 189 192 198 199 200 199 194 193 193 194 200 200 201 207 210 212 213 221 221 193 192 197 176 159 156 155 151 147 152 155 149 143 146 149 146 150 155 150
181 179 177 174 168 167 168 167 166 168 170 174 176 178 180 180 184 184 181 181 179 179 180 183 189 188 190 197 200 198 191 189 196 192 194 206 203 199 204 211 222 225 219 216 200 196 197 171 154 153 157 156 150 152 155 150 148 151 152 150 152 151 147
180 178 177 173 168 168 168 165 164 166 168 168 168 172 177 181 184 182 181 183 182 182 183 186 192 193 196 202 199 191 180 182 194 189 190 207 208 202 201 202 216 225 212 201 194 189 182 170 159 155 159 157 152 155 157 156 157 156 158 158 155 153 153
176 176 177 174 169 167 166 164 162 163 164 162 165 172 177 183 185 176 173 181 183 186 188 187 192 195 198 204 198 185 179 186 191 186 187 201 208 206 204 204 205 209 208 198 191 188 183 179 169 161 163 159 155 158 158 160 163 161 162 160 155 161 163
174 174 176 173 166 163 163 163 161 160 160 161 166 172 173 178 180 169 167 179 184 190 194 192 193 193 194 202 202 188 185 189 186 182 188 197 204 204 204 208 202 200 207 200 194 196 194 186 174 169 173 168 162 162 161 163 164 159 160 160 156 164 168
175 174 174 170 162 160 161 162 160 158 158 160 162 164 167 169 167 164 170 179 187 195 199 197 194 190 189 196 197 189 188 189 182 183 188 193 203 202 200 201 196 199 208 200 190 192 191 187 184 182 178 174 172 172 169 168 166 161 163 162 159 164 169
175 175 172 167 161 159 160 161 160 157 156 155 153 155 161 161 156 161 172 178 188 196 198 199 196 191 191 191 187 185 185 184 184 188 190 192 200 201 197 194 190 196 204 197 190 188 184 185 194 193 177 170 180 187 178 171 164 163 165 162 162 168 173
174 174 172 168 164 162 162 162 160 157 155 153 150 149 154 156 152 157 169 176 184 189 192 196 192 188 194 194 189 187 186 184 185 189 189 191 197 198 197 193 191 198 201 194 190 189 182 179 189 193 176 168 176 185 180 172 161 160 165 162 163 174 179
173 173 173 170 166 165 165 165 162 158 155 153 151 149 152 157 156 157 165 170 174 176 181 188 181 181 191 191 184 183 187 185 183 182 180 178 181 185 191 193 193 198 196 191 191 191 184 176 176 182 180 176 171 170 174 173 161 155 162 165 164 173 182
174 172 172 170 168 167 168 168 164 160 157 155 153 152 155 160 160 160 162 163 168 172 174 178 171 168 178 179 173 171 174 172 168 166 164 160 161 168 175 187 193 193 188 186 192 192 184 173 169 174 178 176 171 167 168 167 159 155 161 168 166 173 184
175 171 169 168 171 172 170 170 167 163 160 158 155 156 161 163 160 162 162 163 168 169 167 171 165 157 162 170 169 165 159 156 156 153 147 142 144 150 153 170 186 187 182 187 193 187 178 172 171 173 173 170 164 163 163 159 158 160 166 170 168 175 188
174 171 169 170 174 174 172 171 170 166 163 161 160 163 165 163 159 160 163 165 167 166 166 170 164 156 157 161 163 163 156 153 155 148 139 136 136 139 145 157 176 181 180 190 194 182 172 174 177 175 172 169 162 161 163 160 158 163 170 174 175 180 193
174 173 172 174 177 176 175 175 172 168 167 166 166 165 162 160 159 160 160 163 166 166 169 171 164 161 160 156 158 161 157 154 153 148 143 141 134 133 143 150 166 177 176 183 186 177 172 175 176 177 176 175 171 168 168 168 166 169 172 178 184 186 197
178 176 172 175 179 177 176 177 172 169 168 167 165 161 159 159 160 159 158 162 165 164 166 168 167 171 170 163 159 159 157 155 153 152 151 148 137 131 143 152 161 169 171 174 176 173 174 176 175 179 181 179 180 179 178 180 181 183 183 185 191 191 198
180 178 173 173 177 177 177 178 174 169 166 164 159 153 153 155 155 157 159 162 165 164 163 162 164 172 174 171 168 167 167 166 162 160 158 153 147 138 137 151 160 163 167 174 174 171 174 178 177 181 185 183 185 188 191 194 196 200 202 201 202 200 203
178 179 175 172 174 178 180 180 175 168 164 159 152 145 146 147 145 148 155 157 161 161 158 155 155 162 171 176 176 175 177 175 175 176 170 164 164 153 142 150 160 162 164 169 173 172 172 177 178 182 187 188 188 195 203 207 208 212 214 216 215 212 213
178 179 173 171 177 180 180 179 175 168 163 157 150 144 143 142 139 142 146 148 155 155 150 153 155 153 162 174 176 178 183 181 183 188 184 179 178 169 155 152 158 164 166 168 174 175 175 180 183 184 191 195 197 206 215 217 219 220 221 223 223 220 221
178 177 174 175 178 180 179 178 172 165 158 153 149 144 142 142 141 143 146 149 153 153 154 163 166 159 156 162 169 176 181 183 185 190 190 189 187 181 171 165 162 167 172 173 177 180 181 186 187 188 200 208 210 216 219 219 222 224 224 226 225 225 227
175 174 176 178 178 178 178 174 168 164 160 156 153 149 148 148 147 151 157 157 155 153 152 155 157 159 162 163 168 171 171 176 181 184 185 187 188 185 184 182 176 174 176 177 180 184 186 192 196 201 210 215 215 217 215 214 218 218 221 225 225 226 228
169 172 176 178 178 176 173 169 165 163 160 159 158 157 159 163 165 168 171 169 164 161 159 155 151 156 161 164 169 170 167 169 170 173 177 178 183 187 188 193 194 191 190 191 194 197 201 208 215 221 225 222 218 218 218 218 219 218 221 225 225 227 229
173 177 175 174 173 169 166 165 166 168 171 177 183 182 179 178 181 183 183 180 176 171 170 168 163 160 157 161 167 164 166 174 168 168 173 170 172 181 183 192 202 204 206 210 213 217 220 224 228 229 231 228 224 225 226 227 227 226 230 235 236 236 236
167 168 166 163 163 164 171 178 189 206 212 207 200 192 188 187 189 191 192 193 189 184 181 177 174 171 165 166 167 164 171 183 179 180 187 185 187 189 188 196 206 212 216 218 220 224 228 232 234 232 233 233 233 235 237 239 240 236 236 240 244 245 245
164 166 170 176 184 198 219 221 215 212 202 189 181 180 186 191 192 192 197 200 200 197 197 193 192 190 183 179 182 184 189 196 198 203 208 208 210 210 208 210 214 223 228 226 227 229 230 236 239 238 238 239 240 242 242 244 245 244 244 245 246 248 249
180 181 185 194 200 205 210 201 187 178 173 173 177 179 181 184 187 190 195 200 204 206 208 210 210 211 209 206 205 208 212 217 221 226 229 229 232 233 232 232 234 239 243 244 244 241 240 243 246 246 247 246 246 248 247 246 246 246 247 248 247 249 249
163 165 169 176 180 182 183 179 174 173 174 175 179 182 182 184 187 193 196 201 210 215 218 221 222 223 225 225 226 231 234 234 236 239 242 244 246 247 248 248 249 251 254 256 255 253 253 254 255 257 258 257 255 255 254 253 251 248 249 249 247 247 249
142 145 151 158 162 171 179 178 175 178 181 182 187 191 193 192 193 198 203 204 208 215 222 229 233 237 239 239 240 243 243 243 246 247 248 250 250 252 252 251 252 254 256 256 256 256 258 259 260 262 262 263 263 261 260 259 256 252 251 254 254 253 254
136 140 146 151 152 156 165 165 162 162 163 168 182 188 189 189 191 200 208 205 207 219 227 234 241 247 250 251 252 252 250 252 256 257 256 256 255 255 255 254 252 252 254 256 257 259 259 259 260 261 262 263 264 262 261 262 262 261 258 258 259 258 258
130 133 137 140 140 141 144 142 140 142 142 148 162 172 175 182 188 204 222 226 234 242 245 249 254 256 258 260 261 262 260 260 262 262 262 263 263 263 264 264 261 256 256 260 262 262 261 260 260 260 261 262 263 262 262 263 263 265 264 263 262 262 261
125 127 129 131 132 134 136 136 140 147 152 160 171 179 188 199 209 227 245 255 262 265 266 266 266 265 267 268 267 267 266 264 266 266 265 266 266 266 267 268 267 263 261 263 265 265 265 264 263 261 260 260 261 263 264 262 260 263 266 267 267 266 265
122 124 125 127 131 135 140 145 150 154 161 173 186 197 213 232 247 255 260 263 266 267 268 269 268 267 267 267 266 266 264 264 266 266 266 265 264 262 260 258 260 263 264 262 263 264 265 264 263 262 260 259 259 259 258 256 256 260 264 266 267 267 266
124 127 124 124 129 134 143 159 168 174 192 222 247 259 264 268 271 275 277 277 277 276 274 274 275 274 272 271 270 269 268 269 268 266 266 265 262 261 260 256 257 263 265 262 260 260 260 261 261 261 260 259 258 258 258 256 256 257 259 263 263 261 260
112 122 127 137 147 146 162 187 205 230 252 267 274 279 282 283 284 285 287 287 287 287 286 283 282 282 281 280 278 276 275 275 273 271 270 269 267 266 264 262 263 266 267 265 263 261 259 259 259 260 260 259 257 256 257 257 256 255 255 255 254 253 252
95 97 97 96 86 74 80 66 37 297 286 289 287 287 286 286 288 287 288 291 293 294 294 292 290 288 287 286 285 283 282 281 279 277 276 274 273 271 269 270 272 274 274 272 271 269 267 264 262 261 261 260 259 257 256 256 256 256 254 250 250 252 250
Height
1537 1538 1540 1542 1543 1544 1545 1547 1548 1549 1550 1551 1552 1553 1553 1553 1554 1555 1555 1556 1556 1557 1558 1559 1560 1560 1561 1562 1562 1563 1564 1565 1566 1567 1568 1568 1569 1569 1568 1569 1570 1570 1570 1570 1570 1571 1572 1574 1575 1576 1578 1578 1579 1579 1580 1580 1581 1582 1583 1584 1585 1585 1586
1536 1538 1539 1541 1543 1544 1545 1547 1548 1549 1550 1550 1551 1552 1552 1553 1553 1554 1555 1555 1556 1556 1557 1558 1559 1560 1560 1561 1561 1562 1563 1564 1565 1566 1567 1567 1568 1568 1568 1568 1569 1569 1569 1570 1570 1570 1571 1573 1574 1576 1577 1578 1579 1580 1580 1581 1582 1582 1583 1584 1585 1586 1586
1535 1537 1539 1540 1542 1544 1545 1546 1547 1549 1549 1550 1550 1551 1552 1552 1552 1554 1555 1555 1555 1556 1557 1557 1558 1559 1560 1560 1561 1561 1562 1563 1564 1565 1565 1566 1567 1567 1567 1568 1568 1569 1569 1569 1569 1570 1571 1572 1574 1575 1577 1578 1579 1580 1581 1582 1582 1583 1584 1585 1586 1586 1587
1535 1536 1538 1539 1541 1543 1544 1546 1547 1548 1549 1549 1550 1550 1551 1552 1552 1553 1554 1555 1555 1556 1556 1557 1558 1558 1559 1559 1560 1560 1561 1562 1563 1564 1565 1565 1566 1566 1567 1567 1567 1568 1568 1568 1569 1571 1571 1572 1573 1575 1577 1578 1580 1581 1582 1583 1584 1584 1585 1585 1586 1586 1587
1535 1536 1538 1539 1541 1542 1544 1545 1547 1548 1548 1549 1549 1550 1550 1551 1552 1553 1554 1554 1555 1555 1556 1557 1557 1558 1558 1559 1559 1560 1560 1561 1562 1563 1564 1565 1565 1566 1567 1567 1567 1567 1568 1568 1570 1571 1571 1572 1573 1575 1577 1579 1580 1581 1582 1582 1584 1585 1586 1586 1587 1587 1587
1536 1538 1539 1540 1542 1543 1544 1545 1546 1547 1548 1548 1549 1549 1550 1551 1552 1552 1553 1554 1554 1555 1556 1556 1557 1557 1558 1558 1559 1559 1559 1560 1561 1562 1564 1564 1564 1565 1566 1567 1567 1567 1568 1569 1569 1570 1571 1573 1573 1575 1577 1578 1580 1582 1582 1583 1584 1586 1586 1587 1587 1587 1587
1536 1538 1540 1541 1542 1543 1544 1545 1546 1547 1548 1548 1548 1549 1550 1550 1551 1552 1553 1553 1554 1555 1556 1556 1556 1557 1557 1558 1558 1559 1559 1560 1561 1561 1563 1563 1563 1564 1565 1566 1566 1567 1567 1568 1569 1570 1571 1573 1573 1574 1576 1578 1580 1581 1582 1584 1585 1586 1586 1587 1587 1588 1588
1535 1537 1539 1540 1542 1543 1544 1545 1547 1548 1548 1548 1549 1549 1549 1550 1550 1551 1552 1553 1553 1554 1555 1556 1556 1556 1557 1557 1558 1558 1559 1560 1560 1561 1562 1562 1562 1563 1564 1564 1565 1565 1566 1568 1569 1570 1570 1571 1572 1574 1576 1577 1579 1581 1582 1584 1585 1586 1586 1587 1587 1588 1587
1532 1535 1537 1539 1540 1542 1544 1545 1546 1547 1548 1548 1548 1548 1549 1549 1550 1550 1551 1552 1553 1554 1555 1555 1556 1556 1557 1557 1557 1558 1558 1559 1559 1560 1561 1561 1562 1562 1563 1564 1564 1565 1566 1567 1569 1570 1570 1571 1572 1574 1575 1577 1578 1579 1581 1583 1584 1585 1586 1586 1587 1587 1587
1531 1534 1535 1537 1539 1541 1543 1544 1545 1546 1547 1547 1548 1548 1548 1548 1549 1550 1551 1552 1553 1554 1554 1555 1555 1556 1556 1556 1557 1557 1558 1558 1559 1560 1560 1561 1561 1561 1562 1563 1564 1565 1566 1567 1568 1569 1570 1571 1571 1573 1575 1576 1577 1578 1580 1582 1583 1585 1585 1587 1587 1587 1587
1532 1534 1536 1537 1539 1540 1542 1543 1544 1545 1546 1546 1547 1547 1547 1548 1549 1550 1550 1551 1552 1553 1554 1554 1555 1555 1556 1556 1556 1557 1557 1558 1559 1559 1559 1560 1560 1561 1562 1562 1563 1565 1566 1566 1567 1568 1570 1571 1571 1571 1573 1575 1577 1578 1579 1580 1582 1584 1585 1586 1587 1587 1587
1532 1534 1535 1537 1538 1539 1541 1542 1544 1544 1545 1546 1546 1546 1547 1547 1548 1549 1550 1551 1552 1553 1553 1554 1554 1555 1555 1555 1556 1556 1557 1557 1558 1558 1559 1559 1560 1560 1561 1562 1563 1564 1565 1566 1567 1568 1569 1570 1571 1572 1573 1575 1577 1578 1578 1580 1582 1584 1585 1586 1587 1587 1587
1531 1533 1534 1536 1538 1539 1541 1542 1543 1544 1544 1545 1545 1546 1546 1547 1548 1549 1550 1551 1552 1553 1553 1553 1554 1554 1554 1555 1555 1555 1556 1557 1557 1558 1558 1558 1559 1560 1560 1561 1562 1563 1564 1566 1567 1567 1568 1570 1572 1573 1574 1575 1577 1577 1578 1580 1581 1583 1585 1586 1587 1587 1587
1530 1532 1534 1536 1537 1539 1541 1542 1543 1543 1543 1544 1544 1545 1546 1547 1548 1549 1550 1551 1552 1553 1553 1553 1553 1554 1554 1554 1555 1555 1556 1557 1557 1558 1558 1558 1558 1559 1560 1560 1561 1562 1564 1566 1567 1567 1568 1569 1571 1573 1574 1576 1577 1577 1578 1580 1581 1583 1584 1585 1586 1587 1587
1530 1532 1534 1536 1537 1539 1541 1542 1542 1543 1543 1543 1544 1545 1546 1546 1547 1548 1549 1551 1552 1552 1553 1553 1553 1554 1554 1554 1554 1555 1556 1557 1558 1558 1558 1558 1558 1558 1559 1560 1561 1562 1563 1565 1565 1566 1568 1570 1572 1573 1574 1576 1577 1577 1578 1580 1581 1582 1583 1584 1586 1587 1586
1530 1532 1534 1535 1537 1539 1540 1541 1542 1542 1542 1543 1543 1544 1545 1546 1547 1548 1549 1550 1551 1552 1552 1552 1553 1554 1554 1555 1555 1555 1556 1557 1557 1557 1558 1558 1559 1558 1559 1559 1560 1561 1563 1564 1565 1566 1568 1570 1572 1573 1574 1576 1577 1577 1578 1580 1581 1582 1583 1584 1585 1586 1586
1529 1530 1533 1535 1537 1538 1540 1540 1541 1541 1541 1542 1543 1543 1544 1545 1546 1548 1549 1550 1551 1551 1551 1551 1552 1553 1554 1555 1555 1556 1556 1557 1557 1558 1558 1558 1558 1558 1558 1559 1560 1560 1562 1563 1565 1567 1568 1570 1572 1573 1574 1576 1577 1577 1578 1579 1580 1581 1582 1583 1584 1585 1585
1525 1527 1530 1533 1536 1538 1539 1539 1540 1540 1540 1541 1542 1542 1544 1545 1546 1547 1549 1550 1551 1551 1551 1551 1552 1553 1553 1554 1555 1556 1556 1557 1557 1557 1558 1558 1558 1558 1558 1559 1559 1560 1562 1563 1565 1567 1568 1570 1572 1573 1574 1575 1576 1577 1578 1579 1580 1581 1582 1583 1583 1584 1585
1523 1526 1529 1531 1534 1536 1538 1538 1539 1539 1540 1540 1541 1542 1543 1545 1546 1548 1549 1550 1551 1551 1551 1551 1552 1552 1553 1554 1554 1555 1556 1556 1557 1557 1557 1558 1558 1558 1558 1559 1559 1560 1562 1563 1564 1566 1568 1570 1571 1573 1574 1575 1576 1577 1577 1578 1579 1580 1581 1582 1583 1583 1584
1522 1525 1528 1530 1533 1535 1537 1538 1538 1539 1539 1540 1540 1542 1543 1545 1546 1547 1548 1549 1550 1550 1551 1551 1552 1552 1553 1554 1554 1555 1555 1556 1556 1557 1557 1558 1558 1558 1558 1559 1559 1560 1561 1563 1564 1565 1567 1568 1570 1572 1573 1574 1575 1576 1576 1577 1578 1579 1580 1581 1581 1582 1582
1522 1524 1526 1529 1532 1534 1535 1536 1537 1538 1539 1539 1540 1541 1543 1544 1545 1547 1548 1548 1549 1550 1550 1551 1551 1552 1553 1553 1554 1554 1555 1556 1557 1557 1557 1558 1558 1558 1559 1559 1559 1560 1561 1562 1563 1565 1566 1567 1568 1570 1571 1572 1573 1574 1574 1575 1576 1577 1578 1579 1579 1580 1580
1521 1523 1525 1528 1530 1532 1534 1535 1536 1537 1539 1539 1540 1541 1543 1544 1545 1546 1547 1547 1548 1548 1549 1550 1550 1551 1552 1553 1554 1554 1555 1555 1556 1557 1558 1558 1558 1559 1559 1559 1559 1560 1561 1562 1563 1564 1565 1566 1567 1569 1570 1570 1571 1572 1573 1574 1575 1575 1576 1577 1577 1578 1579
1520 1522 1524 1526 1529 1530 1532 1534 1535 1537 1538 1539 1540 1541 1543 1544 1545 1547 1547 1547 1548 1548 1548 1549 1549 1550 1551 1552 1553 1554 1554 1555 1556 1557 1558 1558 1558 1559 1559 1559 1559 1560 1561 1562 1563 1564 1565 1566 1567 1568 1569 1569 1570 1571 1572 1572 1573 1573 1574 1575 1575 1576 1576
1518 1520 1522 1525 1527 1529 1531 1533 1535 1537 1538 1539 1540 1541 1542 1544 1545 1546 1546 1547 1547 1548 1549 1549 1550 1550 1551 1551 1552 1553 1554 1555 1555 1556 1557 1558 1559 1559 1559 1559 1559 1560 1560 1561 1562 1563 1564 1565 1566 1567 1567 1568 1569 1569 1570 1571 1572 1572 1572 1573 1573 1574 1574
1517 1519 1522 1524 1527 1529 1531 1533 1535 1537 1538 1539 1540 1541 1542 1543 1544 1545 1545 1547 1547 1548 1549 1549 1550 1550 1551 1551 1552 1552 1554 1554 1555 1556 1557 1557 1558 1559 1559 1559 1559 1559 1560 1561 1561 1562 1563 1564 1564 1565 1566 1566 1567 1567 1568 1569 1570 1570 1571 1571 1572 1572 1572
1519 1521 1523 1525 1527 1530 1532 1533 1535 1537 1538 1539 1539 1541 1542 1543 1544 1544 1545 1546 1547 1547 1548 1549 1550 1550 1551 1551 1552 1552 1553 1554 1555 1556 1556 1556 1557 1557 1558 1558 1559 1559 1559 1560 1561 1561 1562 1562 1563 1563 1564 1564 1565 1565 1566 1566 1567 1568 1568 1569 1569 1570 1570
1520 1522 1524 1526 1528 1529 1531 1532 1534 1536 1537 1538 1539 1540 1541 1542 1543 1544 1545 1546 1546 1547 1548 1549 1550 1550 1550 1551 1551 1552 1553 1554 1554 1555 1555 1555 1556 1556 1557 1557 1558 1559 1559 1559 1560 1560 1561 1561 1561 1562 1562 1562 1563 1563 1563 1564 1564 1565 1565 1566 1566 1567 1567
1521 1522 1524 1526 1528 1529 1530 1531 1533 1534 1536 1538 1539 1540 1541 1542 1542 1543 1544 1545 1546 1547 1547 1548 1549 1550 1550 1551 1551 1552 1552 1553 1553 1554 1554 1555 1555 1555 1556 1557 1557 1558 1558 1559 1559 1559 1560 1560 1560 1560 1560 1561 1561 1561 1561 1561 1561 1562 1562 1563 1563 1563 1564
1522 1523 1525 1526 1528 1529 1531 1532 1533 1534 1536 1538 1539 1539 1540 1541 1542 1543 1544 1544 1545 1546 1547 1547 1548 1549 1549 1550 1550 1551 1552 1552 1552 1553 1553 1554 1554 1554 1555 1555 1556 1556 1557 1557 1557 1557 1558 1558 1558 1558 1558 1558 1559 1558 1558 1558 1558 1559 1560 1560 1560 1560 1560
1523 1525 1526 1527 1528 1530 1532 1533 1533 1535 1536 1537 1538 1538 1539 1539 1540 1542 1542 1543 1544 1545 1545 1546 1547 1547 1548 1549 1549 1550 1551 1551 1551 1551 1552 1552 1553 1553 1553 1554 1554 1554 1555 1554 1554 1554 1555 1555 1556 1556 1556 1556 1556 1556 1556 1555 1555 1556 1557 1557 1557 1557 1557
1525 1526 1527 1528 1529 1531 1532 1533 1534 1534 1535 1536 1537 1537 1538 1539 1540 1540 1541 1542 1543 1544 1544 1545 1546 1546 1547 1547 1548 1549 1549 1550 1550 1550 1550 1551 1551 1551 1551 1551 1552 1552 1551 1551 1551 1552 1552 1552 1553 1553 1553 1553 1553 1553 1553 1553 1552 1553 1554 1553 1553 1553 1553
1527 1528 1529 1530 1530 1531 1532 1533 1534 1534 1535 1536 1537 1537 1538 1539 1539 1540 1540 1541 1542 1543 1543 1544 1545 1545 1546 1546 1547 1547 1548 1548 1548 1548 1549 1549 1549 1549 1549 1549 1549 1549 1549 1548 1549 1549 1549 1549 1550 1550 1550 1550 1549 1549 1550 1550 1548 1548 1549 1549 1549 1549 1548
1529 1530 1530 1531 1532 1532 1533 1533 1534 1535 1535 1536 1537 1537 1538 1538 1539 1540 1540 1541 1541 1542 1542 1543 1543 1544 1544 1545 1545 1545 1546 1546 1546 1546 1547 1547 1547 1547 1547 1547 1546 1546 1546 1546 1546 1546 1546 1546 1546 1546 1546 1546 1546 1546 1546 1546 1545 1544 1544 1544 1544 1544 1544
1529 1530 1531 1531 1532 1533 1533 1534 1534 1535 1535 1536 1536 1537 1537 1538 1538 1539 1539 1540 1540 1540 1541 1541 1541 1541 1542 1542 1542 1543 1543 1543 1543 1544 1544 1544 1544 1544 1545 1544 1542 1541 1542 1543 1542 1542 1542 1541 1541 1541 1542 1542 1542 1542 1541 1541 1541 1541 1540 1539 1539 1539 1539
1530 1530 1531 1531 1532 1532 1533 1533 1534 1534 1534 1535 1535 1536 1536 1536 1537 1537 1537 1537 1538 1538 1538 1538 1538 1538 1538 1539 1539 1539 1539 1539 1540 1540 1540 1540 1541 1540 1540 1540 1538 1537 1538 1539 1538 1538 1537 1537 1536 1536 1536 1537 1537 1537 1537 1536 1537 1536 1536 1535 1535 1535 1534
1530 1531 1531 1532 1532 1532 1533 1533 1533 1533 1533 1534 1534 1535 1535 1535 1535 1535 1535 1535 1535 1535 1535 1535 1535 1535 1535 1535 1535 1535 1535 1535 1535 1536 1535 1536 1536 1536 1535 1534 1533 1533 1533 1533 1533 1533 1533 1532 1532 1532 1532 1532 1532 1532 1532 1531 1531 1531 1532 1531 1531 1530 1531
1530 1530 1531 1531 1531 1532 1532 1532 1532 1532 1532 1533 1533 1533 1533 1534 1534 1534 1534 1534 1534 1533 1533 1532 1532 1532 1532 1532 1531 1531 1531 1531 1531 1531 1531 1531 1531 1530 1529 1528 1527 1528 1528 1528 1527 1527 1527 1527 1527 1527 1527 1527 1527 1527 1526 1526 1526 1526 1527 1526 1526 1526 1526